Flag for Germany Weather past 2 weeks in Meppen, Lower Saxony, Germany

Now
78 °F

Partly sunny.


Feels Like: 79 °F
Forecast: 63 / 79 °F
Wind: 5 mph from Northeast

Location: Meppen

Current Time: Jul 22, 2014 at 5:06:34 PM

Latest Report: Jul 22, 2014 at 4:00 PM


Visibility: 25 mi

Pressure: 30.09 "Hg

Humidity: 51%

Dew point: 58 °F

Location of MeppenLocation

Historic Weather in Meppen — Graph

°F

Meppen temperature yesterday

Maximum temperature yesterday: 71 °F (at 8:00 PM)
Minimum temperature yesterday: 65 °F (at 8:00 AM)
Average temperature yesterday: 68 °F

Past Weeks' High & Low Weather Summary

 TemperatureHumidityPressure
High93 °F (Jul 19, 4:00 PM)95% (Jul 10, 6:00 AM)30.20 "Hg (Jul 10, 6:00 AM)
Low53 °F (Jul 16, 6:00 AM)22% (Jul 19, 3:00 PM)29.65 "Hg (Jul 9, 6:00 PM)
Average69 °F71%29.96 "Hg
* Reported Jul 7 4:00 PM — Jul 22 3:00 PM, Meppen, Weather by CustomWeather, © 2014

Note: Actual official high and low records may vary slightly from our data, if they occured in-between our weather recording intervals... More about our weather records

Advertising

Meppen weather history for previous 24 hours

 ConditionsComfort  
Time TempWeatherWind HumidityBarometerVisibility
3:00 PM
Jul 22
78 °FPartly sunny.6 mph53%30.10 "Hg22 mi
1:00 PM77 °FPartly sunny.6 mph55%30.10 "Hg22 mi
12:00 PM75 °FPartly sunny.6 mph60%30.09 "Hg19 mi
10:00 AM68 °FScattered clouds.5 mph79%30.09 "Hg7 mi
9:00 AM64 °FFog.5 mph88%30.09 "Hg4 mi
8:00 AM62 °FFog.3 mph92%30.07 "Hg3 mi
7:00 AM59 °FFog.5 mph93%30.06 "Hg3 mi
6:00 AM59 °FFog.3 mph92%30.05 "Hg4 mi
4:00 AM62 °FCool.2 mph91%30.03 "Hg4 mi
3:00 AM63 °FMild.2 mph89%30.02 "Hg4 mi
1:00 AM65 °FMild.3 mph90%30.00 "Hg5 mi
12:00 AM68 °FMild.3 mph92%29.98 "Hg4 mi
10:00 PM
Jul 21
69 °FMild.3 mph92%29.96 "Hg3 mi
9:00 PM70 °FMild.2 mph90%29.96 "Hg4 mi
8:00 PM71 °FMild.2 mph89%29.94 "Hg3 mi
7:00 PM70 °FMild.2 mph89%29.94 "Hg3 mi
6:00 PM70 °FMild.2 mph89%29.94 "Hg3 mi
Weather by CustomWeather, © 2014

See weather overviewHow to use our weather pages